Location: Zaragoza
(41.6330°N, 0.8830°W)
Time: 00:59:13
(UTC+02:00)

ISS - Pass Details

Date: 12 October 2018
Orbit: 402 x 408 km, 51.6° (Epoch: 22 October)

Event Time Altitude Azimuth Distance (km) Brightness Sun altitude
Rises 20:46:05 0° 295° (WNW) 2,336 1.4 -15.5°
Reaches altitude 10° 20:48:25 10° 281° (W) 1,471 0.4 -15.9°
Maximum altitude 20:51:07 24° 226° (SW) 901 -1.6 -16.4°
Drops below altitude 10° 20:53:49 10° 170° (S) 1,461 -1.2 -17.0°
Enters shadow 20:53:54 10° 169° (S) 1,487 -1.1 -17.0°
